When you browse on this site, cookies collect data to enhance your experience and personalize the content and advertising you see.
Visit our Privacy Policy to learn more. By continuing to use the site, you agree to this use of cookies and data.
  • In Portugal
  • List of Countries
  • For 7 days
  • Water Temperature
  • Satellite Maps
  • Weather Map
  • Weather Widgets
  • user-avatar
    Login

    Hourly Weather Sunny Beach

    Today, 11 December, Tuesday

    Time Temperature Precipitation Wind Pressure Humidity
    00:00 +1°C° 0.3 mm 5 mps 729 mmHg 82%
    01:00 +1°C° 0.3 mm 5 mps 729 mmHg 82%
    02:00 +1°C° 0 mm 6 mps 729 mmHg 82%
    03:00 +1°C° 0.3 mm 6 mps 729 mmHg 81%
    04:00 +1°C° 0.3 mm 6 mps 729 mmHg 81%
    05:00 +1°C° 0.3 mm 5 mps 730 mmHg 81%
    06:00 +1°C° 0.1 mm 5 mps 730 mmHg 81%
    07:00 +1°C° 0.1 mm 5 mps 731 mmHg 81%
    08:00 +1°C° 0.1 mm 5 mps 731 mmHg 81%
    09:00 +1°C° 0 mm 5 mps 732 mmHg 77%
    10:00 +2°C° 0 mm 5 mps 732 mmHg 73%
    11:00 +3°C° 0 mm 5 mps 732 mmHg 69%
    12:00 +3°C° 0 mm 5 mps 733 mmHg 67%
    13:00 +4°C° 0 mm 4 mps 733 mmHg 65%
    14:00 +5°C° 0 mm 4 mps 733 mmHg 63%
    15:00 +4°C° 0 mm 4 mps 733 mmHg 66%
    16:00 +3°C° 0 mm 3 mps 734 mmHg 70%
    17:00 +2°C° 0 mm 3 mps 734 mmHg 74%
    18:00 +2°C° 0 mm 3 mps 734 mmHg 75%
    19:00 +1°C° 0 mm 3 mps 734 mmHg 76%
    20:00 +1°C° 0 mm 3 mps 734 mmHg 77%
    21:00 +1°C° 0 mm 3 mps 734 mmHg 76%
    22:00 0°C° 0 mm 3 mps 735 mmHg 74%
    23:00 0°C° 0 mm 3 mps 735 mmHg 73%

    Tomorrow, 12 December, Wednesday

    Time Temperature Precipitation Wind Pressure Humidity
    00:00 0°C° 0 mm 3 mps 735 mmHg 74%
    01:00 0°C° 0 mm 3 mps 735 mmHg 74%
    02:00 0°C° 0 mm 3 mps 735 mmHg 75%
    03:00 -1°C° 0 mm 3 mps 735 mmHg 76%
    04:00 -1°C° 0 mm 3 mps 735 mmHg 77%
    05:00 -2°C° 0 mm 3 mps 735 mmHg 78%
    06:00 -2°C° 0 mm 3 mps 735 mmHg 78%
    07:00 -2°C° 0 mm 3 mps 735 mmHg 77%
    08:00 -2°C° 0 mm 3 mps 736 mmHg 77%
    09:00 0°C° 0 mm 3 mps 736 mmHg 72%
    10:00 0°C° 0 mm 4 mps 736 mmHg 68%
    11:00 +1°C° 0 mm 5 mps 737 mmHg 63%
    12:00 +2°C° 0 mm 5 mps 737 mmHg 63%
    13:00 +2°C° 0 mm 5 mps 737 mmHg 62%
    14:00 +2°C° 0 mm 5 mps 737 mmHg 62%
    15:00 +1°C° 0 mm 4 mps 737 mmHg 66%
    16:00 +1°C° 0 mm 3 mps 737 mmHg 70%
    17:00 +1°C° 0 mm 2 mps 737 mmHg 75%
    18:00 +1°C° 0 mm 2 mps 738 mmHg 75%
    19:00 +1°C° 0 mm 2 mps 738 mmHg 76%
    20:00 -1°C° 0 mm 2 mps 738 mmHg 76%
    21:00 -1°C° 0 mm 2 mps 738 mmHg 76%
    22:00 -1°C° 0 mm 2 mps 738 mmHg 75%
    23:00 -1°C° 0 mm 3 mps 739 mmHg 74%

    Day after tomorrow, 13 December, Thursday

    Time Temperature Precipitation Wind Pressure Humidity
    00:00 -1°C° 0 mm 3 mps 739 mmHg 74%
    01:00 -1°C° 0 mm 3 mps 739 mmHg 73%
    02:00 -1°C° 0 mm 3 mps 739 mmHg 72%
    03:00 -1°C° 0 mm 3 mps 739 mmHg 73%
    04:00 -1°C° 0 mm 3 mps 739 mmHg 74%
    05:00 -1°C° 0 mm 3 mps 738 mmHg 75%
    06:00 -1°C° 0 mm 3 mps 739 mmHg 75%
    07:00 -1°C° 0 mm 3 mps 739 mmHg 76%
    08:00 -1°C° 0 mm 3 mps 739 mmHg 77%
    09:00 0°C° 0 mm 3 mps 739 mmHg 71%
    10:00 +2°C° 0 mm 3 mps 739 mmHg 65%
    11:00 +3°C° 0 mm 4 mps 739 mmHg 59%
    12:00 +4°C° 0 mm 4 mps 739 mmHg 59%
    13:00 +4°C° 0 mm 3 mps 738 mmHg 58%
    14:00 +5°C° 0 mm 3 mps 738 mmHg 57%
    15:00 +4°C° 0 mm 3 mps 738 mmHg 63%
    16:00 +3°C° 0 mm 3 mps 738 mmHg 68%
    17:00 +3°C° 0 mm 2 mps 738 mmHg 74%
    18:00 +2°C° 0 mm 2 mps 738 mmHg 74%
    19:00 +3°C° 0 mm 1 mps 738 mmHg 75%
    20:00 +3°C° 0 mm 1 mps 738 mmHg 75%
    21:00 +3°C° 0.1 mm 1 mps 738 mmHg 76%
    22:00 +3°C° 0.1 mm 1 mps 738 mmHg 76%
    23:00 +3°C° 0.1 mm 1 mps 738 mmHg 77%

    14 December, Friday

    Time Temperature Precipitation Wind Pressure Humidity
    00:00 +3°C° 0.1 mm 1 mps 738 mmHg 77%
    01:00 +3°C° 0.1 mm 1 mps 738 mmHg 77%
    02:00 +3°C° 0.1 mm 1 mps 738 mmHg 78%
    03:00 +3°C° 0.1 mm 1 mps 738 mmHg 79%
    04:00 +3°C° 0.1 mm 1 mps 738 mmHg 80%
    05:00 +3°C° 0.1 mm 1 mps 738 mmHg 80%
    06:00 +2°C° 0 mm 1 mps 738 mmHg 81%
    07:00 +2°C° 0 mm 1 mps 739 mmHg 82%
    08:00 +2°C° 0 mm 1 mps 739 mmHg 83%
    09:00 +3°C° 0 mm 1 mps 739 mmHg 79%
    10:00 +5°C° 0 mm 1 mps 740 mmHg 75%
    11:00 +6°C° 0 mm 1 mps 740 mmHg 71%
    12:00 +6°C° 0 mm 1 mps 740 mmHg 70%
    13:00 +7°C° 0 mm 1 mps 740 mmHg 69%
    14:00 +6°C° 0 mm 2 mps 740 mmHg 68%
    15:00 +6°C° 0 mm 2 mps 740 mmHg 72%
    16:00 +5°C° 0 mm 2 mps 740 mmHg 77%
    17:00 +4°C° 0 mm 2 mps 740 mmHg 82%
    18:00 +4°C° 0 mm 2 mps 740 mmHg 83%
    19:00 +4°C° 0 mm 2 mps 740 mmHg 84%
    20:00 +3°C° 0 mm 2 mps 740 mmHg 85%
    21:00 +3°C° 0 mm 2 mps 740 mmHg 86%
    22:00 +2°C° 0 mm 3 mps 740 mmHg 86%
    23:00 +2°C° 0 mm 3 mps 740 mmHg 87%

    15 December, Saturday

    Time Temperature Precipitation Wind Pressure Humidity
    00:00 +2°C° 0 mm 3 mps 740 mmHg 87%
    01:00 +2°C° 0 mm 3 mps 740 mmHg 87%
    02:00 +3°C° 0 mm 3 mps 740 mmHg 87%
    03:00 +3°C° 0 mm 3 mps 740 mmHg 88%
    04:00 +3°C° 0 mm 4 mps 739 mmHg 89%
    05:00 +3°C° 0 mm 4 mps 739 mmHg 89%
    06:00 +4°C° 0.2 mm 4 mps 739 mmHg 90%
    07:00 +3°C° 0.2 mm 5 mps 739 mmHg 91%
    08:00 +3°C° 0.2 mm 5 mps 739 mmHg 91%
    09:00 +5°C° 0.2 mm 5 mps 739 mmHg 91%
    10:00 +5°C° 0.2 mm 5 mps 739 mmHg 91%
    11:00 +6°C° 0.2 mm 5 mps 739 mmHg 90%
    12:00 +6°C° 1.5 mm 5 mps 739 mmHg 91%
    13:00 +6°C° 1.5 mm 5 mps 738 mmHg 92%
    14:00 +6°C° 1.5 mm 5 mps 738 mmHg 93%
    15:00 +6°C° 0.7 mm 5 mps 738 mmHg 94%
    16:00 +6°C° 0.7 mm 4 mps 738 mmHg 95%
    17:00 +6°C° 0.7 mm 4 mps 737 mmHg 95%
    18:00 +6°C° 0.1 mm 4 mps 737 mmHg 95%
    19:00 +7°C° 0.1 mm 3 mps 737 mmHg 95%
    20:00 +7°C° 0.1 mm 3 mps 737 mmHg 95%
    21:00 +7°C° 0 mm 3 mps 737 mmHg 95%
    22:00 +7°C° 0 mm 3 mps 737 mmHg 95%
    23:00 +7°C° 0 mm 3 mps 737 mmHg 95%

    16 December, Sunday

    Time Temperature Precipitation Wind Pressure Humidity
    00:00 +7°C° 0.1 mm 3 mps 737 mmHg 95%
    01:00 +7°C° 0.1 mm 3 mps 737 mmHg 95%
    02:00 +7°C° 0.1 mm 2 mps 736 mmHg 96%
    03:00 +7°C° 0.2 mm 3 mps 736 mmHg 96%
    04:00 +7°C° 0.2 mm 3 mps 736 mmHg 96%
    05:00 +7°C° 0.2 mm 3 mps 736 mmHg 97%
    06:00 +7°C° 0.4 mm 3 mps 736 mmHg 97%
    07:00 +7°C° 0.4 mm 3 mps 736 mmHg 97%
    08:00 +7°C° 0.4 mm 3 mps 736 mmHg 97%
    09:00 +8°C° 0.4 mm 3 mps 737 mmHg 96%
    10:00 +8°C° 0.4 mm 3 mps 737 mmHg 95%
    11:00 +9°C° 0.4 mm 3 mps 737 mmHg 94%
    12:00 +9°C° 0.4 mm 3 mps 737 mmHg 94%
    13:00 +8°C° 0.4 mm 4 mps 737 mmHg 93%
    14:00 +8°C° 0.4 mm 4 mps 737 mmHg 92%
    15:00 +8°C° 0.1 mm 4 mps 737 mmHg 92%
    16:00 +7°C° 0.1 mm 5 mps 738 mmHg 92%
    17:00 +7°C° 0.1 mm 5 mps 738 mmHg 93%
    18:00 +7°C° 0.1 mm 5 mps 738 mmHg 92%
    19:00 +7°C° 0.1 mm 5 mps 739 mmHg 92%
    20:00 +6°C° 0.1 mm 5 mps 739 mmHg 91%
    21:00 +5°C° 0.1 mm 6 mps 739 mmHg 91%
    22:00 +5°C° 0.1 mm 6 mps 740 mmHg 90%
    23:00 +4°C° 0.1 mm 6 mps 740 mmHg 89%
    Show more